Regional Weather Roundup
Issued by NWS Little Rock, AR

Home | Current Version | Previous Version | Text Only | Print | Product List | Glossary Off
Versions: 1 2 3 4 5 6 7 8 9 10 11 12 13 14 15 16 17 18 19 20 21 22 23 24 25 26 27 28

000
ASUS44 KLZK 170905
RWRLZK

WEATHER ROUNDUP FOR ARKANSAS
NATIONAL WEATHER SERVICE LITTLE ROCK AR
400 AM CDT THU APR 17 2014

NOTE: "FAIR" INDICATES FEW OR NO CLOUDS BELOW 12,000 FEET WITH NO
SIGNIFICANT WEATHER AND/OR OBSTRUCTIONS TO VISIBILITY.

ARZ001-003-010-029-171000-
NORTHWEST ARKANSAS

CITY           SKY/WX    TMP DP  RH WIND       PRES   REMARKS
FAYETTEVILLE   CLEAR     36  32  85 CALM      30.14R
FORT SMITH     CLEAR     44  37  76 NE6       30.14R
HARRISON       CLEAR     41  31  67 CALM      30.14R
BENTONVILLE    CLEAR     41  30  65 CALM      30.14R
ROGERS         CLEAR     43  31  62 SE3       30.14R
SILOAM SPGS    CLEAR     45  28  53 SE3       30.14R
HIGHFILL       CLEAR     40  31  70 CALM      30.13R
$$

ARZ004-005-016-171000-
NORTH CENTRAL ARKANSAS

CITY           SKY/WX    TMP DP  RH WIND       PRES   REMARKS
BATESVILLE     CLEAR     41  36  81 SE3       30.17S
FLIPPIN        CLEAR     37  25  60 CALM      30.16R
MTN HOME       CLEAR     41  29  62 SE3       30.15R
$$

ARZ040-041-171000-
WEST CENTRAL ARKANSAS

CITY           SKY/WX    TMP DP  RH WIND       PRES   REMARKS
MENA           CLEAR     36  36 100 CALM      30.14S
MOUNT IDA      CLEAR     36  34  92 CALM      30.12S
$$

ARZ009-017-025-026-028-171000-
NORTHEAST ARKANSAS

CITY           SKY/WX    TMP DP  RH WIND       PRES   REMARKS
CORNING        FAIR      39  37  93 SE3       30.20R
JONESBORO      CLEAR     38  35  89 CALM      30.19S
NEWPORT        CLEAR     43  39  85 CALM      30.20S
WALNUT RIDGE   CLEAR     43  36  75 SE3       30.19R
BLYTHEVILLE    CLEAR     44  34  67 CALM      30.21R
$$

ARZ022-023-033-042-044-171000-
CENTRAL ARKANSAS

CITY           SKY/WX    TMP DP  RH WIND       PRES   REMARKS
LITTLE ROCK    CLEAR     43  38  82 CALM      30.18S
N LITTLE ROCK    N/A     47  38  72 S3        30.18S
JACKSONVILLE   CLEAR     37  36  94 CALM      30.18S
SEARCY         CLEAR     38  37  96 CALM      30.19S
HOT SPRINGS    CLEAR     44  35  70 CALM      30.16S
RUSSELLVILLE   CLEAR     38  35  89 CALM      30.16S
CLINTON        FAIR      36  34  93 CALM      30.19S
$$

ARZ036-171000-
EAST ARKANSAS

CITY           SKY/WX    TMP DP  RH WIND       PRES   REMARKS
WEST MEMPHIS   CLEAR     42  40  92 CALM      30.20R
$$

ARZ050-053-066-070-073-171000-
SOUTHWEST ARKANSAS

CITY           SKY/WX    TMP DP  RH WIND       PRES   REMARKS
ARKADELPHIA    FAIR      43  42  96 CALM      30.18R
CAMDEN         CLEAR     37  36  93 MISG      30.18R
TEXARKANA      CLEAR     45  38  76 SE6       30.14S
EL DORADO      CLEAR     39  37  92 CALM      30.17R
DE QUEEN       CLEAR     38  37  97 E3        30.13S
$$

ARZ056-057-069-171000-
SOUTHEAST ARKANSAS

CITY           SKY/WX    TMP DP  RH WIND       PRES   REMARKS
PINE BLUFF     CLEAR     41  39  93 CALM      30.18S
STUTTGART      CLEAR     46  37  71 SE7       30.19S
MONTICELLO     CLEAR     41  37  86 CALM      30.18R

$$





USA.gov is the U.S. government's official web portal to all federal, state and local government web resources and services.